Weather in Narkevichi

Ukraine / Khmelnitsky District     49°31′00″N   26°38′25″E
temp.,
°C
wind,
m/s
gust,
m/s
humid.,
%
clouds,
%
prec.,
mm/h
press.,
hPa
HPBL,
m
13 june, sun
sun1300:00+13sw3692100 0.0 101098
03:00+13sw3995100 0.0 1008205
06:00+13wsw3899100 3.4 1006338
09:00+13nw61294100 13.3 1009830
12:00+13nw81190100 2.0 1011870
15:00+16nw8963100 2.2 10111706
18:00+15nw81076100 0.3 10121205
21:00+11nw6118841 0.4 1013609
14 june, mon
mon1400:00+11wnw4993100 0.0 1013515
03:00+11nw588991 0.1 1013561
06:00+11nnw5989100 0.1 1014710
09:00+12nnw6891100 0.7 1015721
12:00+11nnw6893100 0.3 1016690
15:00+12nnw5790100 0.3 1017603
18:00+12nnw5688100 0.1 1017665
21:00+11nnw4993100 0.1 1017403
15 june, tue
tue1500:00+12nnw51194100 0.3 1017424
03:00+11nnw4994100 0.3 1018322
06:00+11nnw4993100 0.0 1018313
09:00+13n578664 0.0 1018410
12:00+18nnw567449 0.0 1017853
15:00+19nnw677273 0.1 10171135
18:00+19nnw587694 0.1 1016669
21:00+16nnw41087100 0.1 1016302
16 june, wed
wed1600:00+13nnw4109199 0.0 1017179
03:00+11nnw499588 0.0 1017166
06:00+12nnw499699 0.0 1017221
09:00+17n578434 0.0 1017560
12:00+19n6773100 0.1 10171137
15:00+20n677098 0.1 10171281
18:00+20n68769 0.5 10171065
21:00+17n36905 0.9 1018135
17 june, thu
thu1700:00+14n37941 0.0 1020133
03:00+12n48922 0.0 1020142
06:00+12n38967 0.0 1021156
09:00+18nne58775 0.0 1021457
12:00+21nne67666 0.0 10211077
15:00+22ne676439 0.1 10201406
18:00+22ne56680 0.0 10211364
21:00+17nne47830 0.0 1021133